Year,Month,Day,Hour,Minute,Value (Times are PST for temperature in C)
2010,02,20,00,00,4.00
2010,02,20,00,01,4.10
2010,02,20,00,02,4.20
2010,02,20,00,03,4.20
2010,02,20,00,04,4.20
2010,02,20,00,05,4.20
2010,02,20,00,06,4.20
2010,02,20,00,07,4.20
2010,02,20,00,08,4.20
2010,02,20,00,09,4.20
2010,02,20,00,10,4.20
2010,02,20,00,11,4.20
2010,02,20,00,12,4.20
2010,02,20,00,13,4.20
2010,02,20,00,14,4.20
2010,02,20,00,15,4.10
2010,02,20,00,16,4.10
2010,02,20,00,17,4.10
2010,02,20,00,18,4.20
2010,02,20,00,19,4.20
2010,02,20,00,20,4.20
2010,02,20,00,21,4.30
2010,02,20,00,22,4.30
2010,02,20,00,23,4.30
2010,02,20,00,24,4.30
2010,02,20,00,25,4.30
2010,02,20,00,26,4.30
2010,02,20,00,27,4.30
2010,02,20,00,28,4.30
2010,02,20,00,29,4.30
2010,02,20,00,30,4.30
2010,02,20,00,31,4.20
2010,02,20,00,32,4.20
2010,02,20,00,33,4.20
2010,02,20,00,34,4.20
2010,02,20,00,35,4.20
2010,02,20,00,36,4.20
2010,02,20,00,37,4.20
2010,02,20,00,38,4.20
2010,02,20,00,39,4.10
2010,02,20,00,40,4.10
2010,02,20,00,41,4.10
2010,02,20,00,42,4.00
2010,02,20,00,43,4.00
2010,02,20,00,44,3.90
2010,02,20,00,45,3.90
2010,02,20,00,46,3.90
2010,02,20,00,47,3.90
2010,02,20,00,48,3.80
2010,02,20,00,49,3.80
2010,02,20,00,50,3.80
2010,02,20,00,51,3.80
2010,02,20,00,52,3.80
2010,02,20,00,53,3.80
2010,02,20,00,54,3.90
2010,02,20,00,55,3.90
2010,02,20,00,56,3.90
2010,02,20,00,57,3.90
2010,02,20,00,58,3.80
2010,02,20,00,59,3.80
2010,02,20,01,00,3.80
2010,02,20,01,01,3.80
2010,02,20,01,02,3.80
2010,02,20,01,03,3.80
2010,02,20,01,04,3.80
2010,02,20,01,05,3.80
2010,02,20,01,06,3.80
2010,02,20,01,07,3.80
2010,02,20,01,08,3.90
2010,02,20,01,09,3.80
2010,02,20,01,10,3.80
2010,02,20,01,11,3.80
2010,02,20,01,12,3.80
2010,02,20,01,13,3.80
2010,02,20,01,14,3.80
2010,02,20,01,15,3.90
2010,02,20,01,16,3.90
2010,02,20,01,17,4.00
2010,02,20,01,18,4.00
2010,02,20,01,19,4.00
2010,02,20,01,20,3.90
2010,02,20,01,21,3.90
2010,02,20,01,22,3.80
2010,02,20,01,23,3.80
2010,02,20,01,24,3.80
2010,02,20,01,25,3.70
2010,02,20,01,26,3.60
2010,02,20,01,27,3.60
2010,02,20,01,28,3.50
2010,02,20,01,29,3.50
2010,02,20,01,30,3.40
2010,02,20,01,31,3.30
2010,02,20,01,32,3.30
2010,02,20,01,33,3.30
2010,02,20,01,34,3.30
2010,02,20,01,35,3.20
2010,02,20,01,36,3.10
2010,02,20,01,37,3.10
2010,02,20,01,38,3.10
2010,02,20,01,39,3.00
2010,02,20,01,40,2.90
2010,02,20,01,41,2.90
2010,02,20,01,42,2.90
2010,02,20,01,43,2.80
2010,02,20,01,44,2.80
2010,02,20,01,45,2.70
2010,02,20,01,46,2.70
2010,02,20,01,47,2.70
2010,02,20,01,48,2.70
2010,02,20,01,49,2.70
2010,02,20,01,50,2.60
2010,02,20,01,51,2.60
2010,02,20,01,52,2.60
2010,02,20,01,53,2.60
2010,02,20,01,54,2.60
2010,02,20,01,55,2.60
2010,02,20,01,56,2.60
2010,02,20,01,57,2.70
2010,02,20,01,58,2.60
2010,02,20,01,59,2.60
2010,02,20,02,00,2.60
2010,02,20,02,01,2.60
2010,02,20,02,02,2.60
2010,02,20,02,03,2.60
2010,02,20,02,04,2.60
2010,02,20,02,05,2.60
2010,02,20,02,06,2.50
2010,02,20,02,07,2.50
2010,02,20,02,08,2.50
2010,02,20,02,09,2.50
2010,02,20,02,10,2.40
2010,02,20,02,11,2.40
2010,02,20,02,12,2.40
2010,02,20,02,13,2.30
2010,02,20,02,14,2.30
2010,02,20,02,15,2.30
2010,02,20,02,16,2.30
2010,02,20,02,17,2.40
2010,02,20,02,18,2.40
2010,02,20,02,19,2.40
2010,02,20,02,20,2.40
2010,02,20,02,21,2.40
2010,02,20,02,22,2.40
2010,02,20,02,23,2.30
2010,02,20,02,24,2.30
2010,02,20,02,25,2.30
2010,02,20,02,26,2.30
2010,02,20,02,27,2.20
2010,02,20,02,28,2.20
2010,02,20,02,29,2.20
2010,02,20,02,30,2.20
2010,02,20,02,31,2.20
2010,02,20,02,32,2.20
2010,02,20,02,33,2.20
2010,02,20,02,34,2.20
2010,02,20,02,35,2.10
2010,02,20,02,36,2.10
2010,02,20,02,37,2.10
2010,02,20,02,38,2.00
2010,02,20,02,39,2.00
2010,02,20,02,40,1.90
2010,02,20,02,41,1.90
2010,02,20,02,42,1.90
2010,02,20,02,43,1.90
2010,02,20,02,44,1.90
2010,02,20,02,45,1.90
2010,02,20,02,46,1.90
2010,02,20,02,47,1.80
2010,02,20,02,48,1.80
2010,02,20,02,49,1.80
2010,02,20,02,50,1.80
2010,02,20,02,51,1.80
2010,02,20,02,52,1.70
2010,02,20,02,53,1.70
2010,02,20,02,54,1.60
2010,02,20,02,55,1.60
2010,02,20,02,56,1.50
2010,02,20,02,57,1.50
2010,02,20,02,58,1.50
2010,02,20,02,59,1.50
2010,02,20,03,00,1.40
2010,02,20,03,01,1.40
2010,02,20,03,02,1.40
2010,02,20,03,03,1.30
2010,02,20,03,04,1.30
2010,02,20,03,05,1.30
2010,02,20,03,06,1.30
2010,02,20,03,07,1.30
2010,02,20,03,08,1.30
2010,02,20,03,09,1.30
2010,02,20,03,10,1.30
2010,02,20,03,11,1.30
2010,02,20,03,12,1.20
2010,02,20,03,13,1.20
2010,02,20,03,14,1.20
2010,02,20,03,15,1.20
2010,02,20,03,16,1.20
2010,02,20,03,17,1.20
2010,02,20,03,18,1.20
2010,02,20,03,19,1.20
2010,02,20,03,20,1.20
2010,02,20,03,21,1.20
2010,02,20,03,22,1.20
2010,02,20,03,23,1.20
2010,02,20,03,24,1.30
2010,02,20,03,25,1.30
2010,02,20,03,26,1.30
2010,02,20,03,27,1.30
2010,02,20,03,28,1.30
2010,02,20,03,29,1.30
2010,02,20,03,30,1.40
2010,02,20,03,31,1.40
2010,02,20,03,32,1.40
2010,02,20,03,33,1.50
2010,02,20,03,34,1.50
2010,02,20,03,35,1.60
2010,02,20,03,36,1.60
2010,02,20,03,37,1.60
2010,02,20,03,38,1.60
2010,02,20,03,39,1.60
2010,02,20,03,40,1.60
2010,02,20,03,41,1.60
2010,02,20,03,42,1.60
2010,02,20,03,43,1.60
2010,02,20,03,44,1.70
2010,02,20,03,45,1.70
2010,02,20,03,46,1.70
2010,02,20,03,47,1.70
2010,02,20,03,48,1.70
2010,02,20,03,49,1.70
2010,02,20,03,50,1.70
2010,02,20,03,51,1.80
2010,02,20,03,52,1.80
2010,02,20,03,53,1.80
2010,02,20,03,54,1.90
2010,02,20,03,55,1.90
2010,02,20,03,56,2.00
2010,02,20,03,57,2.00
2010,02,20,03,58,2.10
2010,02,20,03,59,2.20
2010,02,20,04,00,2.20
2010,02,20,04,01,2.20
2010,02,20,04,02,2.30
2010,02,20,04,03,2.30
2010,02,20,04,04,2.30
2010,02,20,04,05,2.30
2010,02,20,04,06,2.30
2010,02,20,04,07,2.30
2010,02,20,04,08,2.30
2010,02,20,04,09,2.20
2010,02,20,04,10,2.20
2010,02,20,04,11,2.20
2010,02,20,04,12,2.20
2010,02,20,04,13,2.20
2010,02,20,04,14,2.20
2010,02,20,04,15,2.20
2010,02,20,04,16,2.20
2010,02,20,04,17,2.20
2010,02,20,04,18,2.20
2010,02,20,04,19,2.10
2010,02,20,04,20,2.20
2010,02,20,04,21,2.20
2010,02,20,04,22,2.20
2010,02,20,04,23,2.20
2010,02,20,04,24,2.20
2010,02,20,04,25,2.30
2010,02,20,04,26,2.30
2010,02,20,04,27,2.30
2010,02,20,04,28,2.30
2010,02,20,04,29,2.30
2010,02,20,04,30,2.40
2010,02,20,04,31,2.40
2010,02,20,04,32,2.40
2010,02,20,04,33,2.50
2010,02,20,04,34,2.50
2010,02,20,04,35,2.50
2010,02,20,04,36,2.50
2010,02,20,04,37,2.50
2010,02,20,04,38,2.50
2010,02,20,04,39,2.50
2010,02,20,04,40,2.60
2010,02,20,04,41,2.70
2010,02,20,04,42,2.70
2010,02,20,04,43,2.70
2010,02,20,04,44,2.70
2010,02,20,04,45,2.70
2010,02,20,04,46,2.70
2010,02,20,04,47,2.70
2010,02,20,04,48,2.70
2010,02,20,04,49,2.70
2010,02,20,04,50,2.70
2010,02,20,04,51,2.70
2010,02,20,04,52,2.70
2010,02,20,04,53,2.90
2010,02,20,04,54,3.00
2010,02,20,04,55,3.10
2010,02,20,04,56,3.20
2010,02,20,04,57,3.30
2010,02,20,04,58,3.30
2010,02,20,04,59,3.40
2010,02,20,05,00,3.40
2010,02,20,05,01,3.50
2010,02,20,05,02,3.60
2010,02,20,05,03,3.60
2010,02,20,05,04,3.60
2010,02,20,05,05,3.60
2010,02,20,05,06,3.70
2010,02,20,05,07,3.70
2010,02,20,05,08,3.70
2010,02,20,05,09,3.80
2010,02,20,05,10,3.80
2010,02,20,05,11,3.90
2010,02,20,05,12,4.00
2010,02,20,05,13,4.10
2010,02,20,05,14,4.20
2010,02,20,05,15,4.20
2010,02,20,05,16,4.30
2010,02,20,05,17,4.40
2010,02,20,05,18,4.50
2010,02,20,05,19,4.50
2010,02,20,05,20,4.60
2010,02,20,05,21,4.60
2010,02,20,05,22,4.60
2010,02,20,05,23,4.60
2010,02,20,05,24,4.60
2010,02,20,05,25,4.50
2010,02,20,05,26,4.40
2010,02,20,05,27,4.30
2010,02,20,05,28,4.10
2010,02,20,05,29,4.00
2010,02,20,05,30,3.80
2010,02,20,05,31,3.70
2010,02,20,05,32,3.60
2010,02,20,05,33,3.50
2010,02,20,05,34,3.50
2010,02,20,05,35,3.50
2010,02,20,05,36,3.50
2010,02,20,05,37,3.50
2010,02,20,05,38,3.60
2010,02,20,05,39,3.70
2010,02,20,05,40,3.70
2010,02,20,05,41,3.80
2010,02,20,05,42,3.80
2010,02,20,05,43,3.80
2010,02,20,05,44,3.90
2010,02,20,05,45,3.90
2010,02,20,05,46,3.90
2010,02,20,05,47,3.90
2010,02,20,05,48,4.00
2010,02,20,05,49,4.00
2010,02,20,05,50,4.00
2010,02,20,05,51,4.10
2010,02,20,05,52,4.10
2010,02,20,05,53,4.10
2010,02,20,05,54,4.10
2010,02,20,05,55,4.10
2010,02,20,05,56,4.10
2010,02,20,05,57,4.00
2010,02,20,05,58,4.00
2010,02,20,05,59,4.00
2010,02,20,06,00,4.00
2010,02,20,06,01,4.00
2010,02,20,06,02,3.90
2010,02,20,06,03,3.80
2010,02,20,06,04,3.80
2010,02,20,06,05,3.80
2010,02,20,06,06,3.80
2010,02,20,06,07,3.80
2010,02,20,06,08,3.70
2010,02,20,06,09,3.70
2010,02,20,06,10,3.70
2010,02,20,06,11,3.60
2010,02,20,06,12,3.60
2010,02,20,06,13,3.50
2010,02,20,06,14,3.40
2010,02,20,06,15,3.30
2010,02,20,06,16,3.30
2010,02,20,06,17,3.20
2010,02,20,06,18,3.10
2010,02,20,06,19,2.90
2010,02,20,06,20,2.80
2010,02,20,06,21,2.70
2010,02,20,06,22,2.60
2010,02,20,06,23,2.50
2010,02,20,06,24,2.30
2010,02,20,06,25,2.30
2010,02,20,06,26,2.20
2010,02,20,06,27,2.10
2010,02,20,06,28,2.00
2010,02,20,06,29,1.90
2010,02,20,06,30,1.80
2010,02,20,06,31,1.80
2010,02,20,06,32,1.80
2010,02,20,06,33,1.80
2010,02,20,06,34,1.80
2010,02,20,06,35,1.70
2010,02,20,06,36,1.60
2010,02,20,06,37,1.60
2010,02,20,06,38,1.50
2010,02,20,06,39,1.50
2010,02,20,06,40,1.40
2010,02,20,06,41,1.40
2010,02,20,06,42,1.30
2010,02,20,06,43,1.30
2010,02,20,06,44,1.30
2010,02,20,06,45,1.30
2010,02,20,06,46,1.30
2010,02,20,06,47,1.30
2010,02,20,06,48,1.30
2010,02,20,06,49,1.30
2010,02,20,06,50,1.30
2010,02,20,06,51,1.30
2010,02,20,06,52,1.30
2010,02,20,06,53,1.30
2010,02,20,06,54,1.40
2010,02,20,06,55,1.40
2010,02,20,06,56,1.40
2010,02,20,06,57,1.40
2010,02,20,06,58,1.40
2010,02,20,06,59,1.40
2010,02,20,07,00,1.40
2010,02,20,07,01,1.50
2010,02,20,07,02,1.50
2010,02,20,07,03,1.50
2010,02,20,07,04,1.50
2010,02,20,07,05,1.50
2010,02,20,07,06,1.60
2010,02,20,07,07,1.60
2010,02,20,07,08,1.60
2010,02,20,07,09,1.60
2010,02,20,07,10,1.70
2010,02,20,07,11,1.70
2010,02,20,07,12,1.70
2010,02,20,07,13,1.70
2010,02,20,07,14,1.70
2010,02,20,07,15,1.80
2010,02,20,07,16,1.80
2010,02,20,07,17,1.80
2010,02,20,07,18,1.80
2010,02,20,07,19,1.90
2010,02,20,07,20,2.00
2010,02,20,07,21,2.10
2010,02,20,07,22,2.20
2010,02,20,07,23,2.40
2010,02,20,07,24,2.60
2010,02,20,07,25,2.70
2010,02,20,07,26,2.80
2010,02,20,07,27,2.90
2010,02,20,07,28,3.10
2010,02,20,07,29,3.20
2010,02,20,07,30,3.30
2010,02,20,07,31,3.40
2010,02,20,07,32,3.50
2010,02,20,07,33,3.50
2010,02,20,07,34,3.50
2010,02,20,07,35,3.60
2010,02,20,07,36,3.60
2010,02,20,07,37,3.80
2010,02,20,07,38,3.80
2010,02,20,07,39,3.80
2010,02,20,07,40,3.90
2010,02,20,07,41,4.00
2010,02,20,07,42,4.00
2010,02,20,07,43,4.10
2010,02,20,07,44,4.20
2010,02,20,07,45,4.20
2010,02,20,07,46,4.10
2010,02,20,07,47,4.10
2010,02,20,07,48,4.00
2010,02,20,07,49,3.90
2010,02,20,07,50,3.80
2010,02,20,07,51,3.80
2010,02,20,07,52,3.80
2010,02,20,07,53,3.80
2010,02,20,07,54,3.80
2010,02,20,07,55,3.80
2010,02,20,07,56,3.80
2010,02,20,07,57,3.80
2010,02,20,07,58,3.80
2010,02,20,07,59,3.80
2010,02,20,08,00,3.80
2010,02,20,08,01,3.70
2010,02,20,08,02,3.70
2010,02,20,08,03,3.70
2010,02,20,08,04,3.80
2010,02,20,08,05,3.90
2010,02,20,08,06,4.00
2010,02,20,08,07,4.00
2010,02,20,08,08,4.10
2010,02,20,08,09,4.20
2010,02,20,08,10,4.30
2010,02,20,08,11,4.40
2010,02,20,08,12,4.40
2010,02,20,08,13,4.50
2010,02,20,08,14,4.50
2010,02,20,08,15,4.50
2010,02,20,08,16,4.50
2010,02,20,08,17,4.60
2010,02,20,08,18,4.60
2010,02,20,08,19,4.60
2010,02,20,08,20,4.60
2010,02,20,08,21,4.60
2010,02,20,08,22,4.70
2010,02,20,08,23,4.70
2010,02,20,08,24,4.70
2010,02,20,08,25,4.80
2010,02,20,08,26,4.80
2010,02,20,08,27,4.90
2010,02,20,08,28,4.90
2010,02,20,08,29,5.00
2010,02,20,08,30,5.10
2010,02,20,08,31,5.10
2010,02,20,08,32,5.30
2010,02,20,08,33,5.30
2010,02,20,08,34,5.40
2010,02,20,08,35,5.50
2010,02,20,08,36,5.60
2010,02,20,08,37,5.70
2010,02,20,08,38,5.80
2010,02,20,08,39,5.90
2010,02,20,08,40,6.00
2010,02,20,08,41,6.20
2010,02,20,08,42,6.30
2010,02,20,08,43,6.40
2010,02,20,08,44,6.50
2010,02,20,08,45,6.60
2010,02,20,08,46,6.70
2010,02,20,08,47,6.70
2010,02,20,08,48,6.80
2010,02,20,08,49,6.80
2010,02,20,08,50,6.90
2010,02,20,08,51,6.90
2010,02,20,08,52,7.00
2010,02,20,08,53,7.10
2010,02,20,08,54,7.20
2010,02,20,08,55,7.20
2010,02,20,08,56,7.30
2010,02,20,08,57,7.40
2010,02,20,08,58,7.60
2010,02,20,08,59,7.70
2010,02,20,09,00,7.80
2010,02,20,09,01,7.80
2010,02,20,09,02,7.80
2010,02,20,09,03,7.90
2010,02,20,09,04,7.90
2010,02,20,09,05,7.90
2010,02,20,09,06,8.00
2010,02,20,09,07,8.00
2010,02,20,09,08,8.10
2010,02,20,09,09,8.20
2010,02,20,09,10,8.20
2010,02,20,09,11,8.30
2010,02,20,09,12,8.30
2010,02,20,09,13,8.30
2010,02,20,09,14,8.40
2010,02,20,09,15,8.40
2010,02,20,09,16,8.40
2010,02,20,09,17,8.50
2010,02,20,09,18,8.50
2010,02,20,09,19,8.60
2010,02,20,09,20,8.60
2010,02,20,09,21,8.60
2010,02,20,09,22,8.70
2010,02,20,09,23,8.70
2010,02,20,09,24,8.70
2010,02,20,09,25,8.70
2010,02,20,09,26,8.70
2010,02,20,09,27,8.80
2010,02,20,09,28,8.80
2010,02,20,09,29,8.80
2010,02,20,09,30,8.80
2010,02,20,09,31,8.80
2010,02,20,09,32,8.80
2010,02,20,09,33,8.80
2010,02,20,09,34,8.80
2010,02,20,09,35,8.80
2010,02,20,09,36,8.90
2010,02,20,09,37,8.90
2010,02,20,09,38,8.90
2010,02,20,09,39,8.80
2010,02,20,09,40,8.90
2010,02,20,09,41,8.90
2010,02,20,09,42,8.90
2010,02,20,09,43,8.90
2010,02,20,09,44,9.00
2010,02,20,09,45,9.00
2010,02,20,09,46,9.00
2010,02,20,09,47,9.10
2010,02,20,09,48,9.10
2010,02,20,09,49,9.10
2010,02,20,09,50,9.10
2010,02,20,09,51,9.10
2010,02,20,09,52,9.20
2010,02,20,09,53,9.20
2010,02,20,09,54,9.20
2010,02,20,09,55,9.20
2010,02,20,09,56,9.20
2010,02,20,09,57,9.20
2010,02,20,09,58,9.20
2010,02,20,09,59,9.20
2010,02,20,10,00,9.20
2010,02,20,10,01,9.20
2010,02,20,10,02,9.20
2010,02,20,10,03,9.20
2010,02,20,10,04,9.20
2010,02,20,10,05,9.30
2010,02,20,10,06,9.30
2010,02,20,10,07,9.30
2010,02,20,10,08,9.30
2010,02,20,10,09,9.30
2010,02,20,10,10,9.30
2010,02,20,10,11,9.30
2010,02,20,10,12,9.30
2010,02,20,10,13,9.20
2010,02,20,10,14,9.20
2010,02,20,10,15,9.20
2010,02,20,10,16,9.20
2010,02,20,10,17,9.20
2010,02,20,10,18,9.20
2010,02,20,10,19,9.20
2010,02,20,10,20,9.20
2010,02,20,10,21,9.30
2010,02,20,10,22,9.40
2010,02,20,10,23,9.40
2010,02,20,10,24,9.50
2010,02,20,10,25,9.50
2010,02,20,10,26,9.60
2010,02,20,10,27,9.70
2010,02,20,10,28,9.80
2010,02,20,10,29,9.90
2010,02,20,10,30,10.00
2010,02,20,10,31,10.10
2010,02,20,10,32,10.10
2010,02,20,10,33,10.20
2010,02,20,10,34,10.20
2010,02,20,10,35,10.20
2010,02,20,10,36,10.20
2010,02,20,10,37,10.30
2010,02,20,10,38,10.30
2010,02,20,10,39,10.40
2010,02,20,10,40,10.30
2010,02,20,10,41,10.20
2010,02,20,10,42,10.10
2010,02,20,10,43,10.10
2010,02,20,10,44,10.10
2010,02,20,10,45,10.10
2010,02,20,10,46,10.20
2010,02,20,10,47,10.30
2010,02,20,10,48,10.30
2010,02,20,10,49,10.40
2010,02,20,10,50,10.40
2010,02,20,10,51,10.40
2010,02,20,10,52,10.40
2010,02,20,10,53,10.40
2010,02,20,10,54,10.60
2010,02,20,10,55,10.60
2010,02,20,10,56,10.50
2010,02,20,10,57,10.40
2010,02,20,10,58,10.50
2010,02,20,10,59,10.60
2010,02,20,11,00,10.60
2010,02,20,11,01,10.60
2010,02,20,11,02,10.70
2010,02,20,11,03,10.70
2010,02,20,11,04,10.70
2010,02,20,11,05,10.60
2010,02,20,11,06,10.60
2010,02,20,11,07,10.60
2010,02,20,11,08,10.60
2010,02,20,11,09,10.70
2010,02,20,11,10,10.70
2010,02,20,11,11,10.70
2010,02,20,11,12,10.80
2010,02,20,11,13,10.80
2010,02,20,11,14,10.90
2010,02,20,11,15,10.90
2010,02,20,11,16,10.90
2010,02,20,11,17,10.90
2010,02,20,11,18,10.90
2010,02,20,11,19,10.90
2010,02,20,11,20,10.90
2010,02,20,11,21,10.90
2010,02,20,11,22,10.90
2010,02,20,11,23,11.00
2010,02,20,11,24,11.10
2010,02,20,11,25,11.20
2010,02,20,11,26,11.10
2010,02,20,11,27,11.10
2010,02,20,11,28,11.10
2010,02,20,11,29,11.10
2010,02,20,11,30,11.10
2010,02,20,11,31,11.00
2010,02,20,11,32,10.90
2010,02,20,11,33,10.90
2010,02,20,11,34,10.90
2010,02,20,11,35,10.90
2010,02,20,11,36,10.90
2010,02,20,11,37,10.90
2010,02,20,11,38,11.00
2010,02,20,11,39,11.10
2010,02,20,11,40,11.10
2010,02,20,11,41,11.10
2010,02,20,11,42,11.00
2010,02,20,11,43,10.90
2010,02,20,11,44,10.90
2010,02,20,11,45,10.90
2010,02,20,11,46,10.90
2010,02,20,11,47,10.90
2010,02,20,11,48,10.90
2010,02,20,11,49,10.90
2010,02,20,11,50,10.90
2010,02,20,11,51,10.90
2010,02,20,11,52,10.90
2010,02,20,11,53,11.00
2010,02,20,11,54,11.10
2010,02,20,11,55,11.10
2010,02,20,11,56,11.10
2010,02,20,11,57,11.10
2010,02,20,11,58,11.00
2010,02,20,11,59,10.90
2010,02,20,12,00,10.90
2010,02,20,12,01,10.90
2010,02,20,12,02,10.90
2010,02,20,12,03,10.80
2010,02,20,12,04,10.80
2010,02,20,12,05,10.80
2010,02,20,12,06,10.70
2010,02,20,12,07,10.70
2010,02,20,12,08,10.70
2010,02,20,12,09,10.70
2010,02,20,12,10,10.70
2010,02,20,12,11,10.70
2010,02,20,12,12,10.70
2010,02,20,12,13,10.80
2010,02,20,12,14,10.80
2010,02,20,12,15,10.90
2010,02,20,12,16,10.90
2010,02,20,12,17,10.80
2010,02,20,12,18,10.70
2010,02,20,12,19,10.70
2010,02,20,12,20,10.70
2010,02,20,12,21,10.70
2010,02,20,12,22,10.80
2010,02,20,12,23,10.90
2010,02,20,12,24,10.90
2010,02,20,12,25,10.90
2010,02,20,12,26,11.00
2010,02,20,12,27,11.10
2010,02,20,12,28,11.10
2010,02,20,12,29,11.10
2010,02,20,12,30,11.20
2010,02,20,12,31,11.20
2010,02,20,12,32,11.20
2010,02,20,12,33,11.10
2010,02,20,12,34,11.10
2010,02,20,12,35,11.10
2010,02,20,12,36,11.10
2010,02,20,12,37,11.10
2010,02,20,12,38,11.10
2010,02,20,12,39,11.10
2010,02,20,12,40,11.10
2010,02,20,12,41,11.10
2010,02,20,12,42,11.10
2010,02,20,12,43,11.10
2010,02,20,12,44,11.10
2010,02,20,12,45,11.20
2010,02,20,12,46,11.20
2010,02,20,12,47,11.20
2010,02,20,12,48,11.20
2010,02,20,12,49,11.20
2010,02,20,12,50,11.20
2010,02,20,12,51,11.30
2010,02,20,12,52,11.30
2010,02,20,12,53,11.40
2010,02,20,12,54,11.30
2010,02,20,12,55,11.30
2010,02,20,12,56,11.20
2010,02,20,12,57,11.10
2010,02,20,12,58,11.10
2010,02,20,12,59,10.90
2010,02,20,13,00,10.90
2010,02,20,13,01,10.90
2010,02,20,13,02,10.90
2010,02,20,13,03,10.90
2010,02,20,13,04,10.90
2010,02,20,13,05,11.10
2010,02,20,13,06,11.10
2010,02,20,13,07,11.20
2010,02,20,13,08,11.20
2010,02,20,13,09,11.20
2010,02,20,13,10,11.20
2010,02,20,13,11,11.10
2010,02,20,13,12,11.10
2010,02,20,13,13,11.10
2010,02,20,13,14,11.00
2010,02,20,13,15,10.90
2010,02,20,13,16,10.90
2010,02,20,13,17,10.90
2010,02,20,13,18,10.90
2010,02,20,13,19,10.90
2010,02,20,13,20,11.00
2010,02,20,13,21,11.10
2010,02,20,13,22,11.10
2010,02,20,13,23,11.10
2010,02,20,13,24,11.10
2010,02,20,13,25,11.10
2010,02,20,13,26,11.10
2010,02,20,13,27,11.10
2010,02,20,13,28,11.10
2010,02,20,13,29,11.10
2010,02,20,13,30,11.00
2010,02,20,13,31,10.90
2010,02,20,13,32,10.90
2010,02,20,13,33,10.80
2010,02,20,13,34,10.80
2010,02,20,13,35,10.80
2010,02,20,13,36,10.70
2010,02,20,13,37,10.70
2010,02,20,13,38,10.60
2010,02,20,13,39,10.60
2010,02,20,13,40,10.60
2010,02,20,13,41,10.60
2010,02,20,13,42,10.60
2010,02,20,13,43,10.60
2010,02,20,13,44,10.60
2010,02,20,13,45,10.60
2010,02,20,13,46,10.70
2010,02,20,13,47,10.70
2010,02,20,13,48,10.80
2010,02,20,13,49,10.90
2010,02,20,13,50,10.90
2010,02,20,13,51,10.90
2010,02,20,13,52,10.90
2010,02,20,13,53,10.90
2010,02,20,13,54,10.90
2010,02,20,13,55,10.90
2010,02,20,13,56,10.90
2010,02,20,13,57,10.90
2010,02,20,13,58,10.80
2010,02,20,13,59,10.80
2010,02,20,14,00,10.80
2010,02,20,14,01,10.70
2010,02,20,14,02,10.70
2010,02,20,14,03,10.80
2010,02,20,14,04,10.80
2010,02,20,14,05,10.90
2010,02,20,14,06,10.90
2010,02,20,14,07,10.90
2010,02,20,14,08,10.90
2010,02,20,14,09,10.90
2010,02,20,14,10,10.90
2010,02,20,14,11,10.90
2010,02,20,14,12,10.90
2010,02,20,14,13,10.90
2010,02,20,14,14,10.90
2010,02,20,14,15,10.90
2010,02,20,14,16,11.00
2010,02,20,14,17,11.10
2010,02,20,14,18,11.10
2010,02,20,14,19,11.20
2010,02,20,14,20,11.20
2010,02,20,14,21,11.30
2010,02,20,14,22,11.30
2010,02,20,14,23,11.30
2010,02,20,14,24,11.30
2010,02,20,14,25,11.30
2010,02,20,14,26,11.30
2010,02,20,14,27,11.30
2010,02,20,14,28,11.40
2010,02,20,14,29,11.40
2010,02,20,14,30,11.40
2010,02,20,14,31,11.40
2010,02,20,14,32,11.40
2010,02,20,14,33,11.40
2010,02,20,14,34,11.40
2010,02,20,14,35,11.40
2010,02,20,14,36,11.30
2010,02,20,14,37,11.20
2010,02,20,14,38,11.20
2010,02,20,14,39,11.20
2010,02,20,14,40,11.10
2010,02,20,14,41,11.10
2010,02,20,14,42,11.00
2010,02,20,14,43,10.90
2010,02,20,14,44,10.90
2010,02,20,14,45,10.90
2010,02,20,14,46,10.90
2010,02,20,14,47,10.90
2010,02,20,14,48,10.90
2010,02,20,14,49,10.90
2010,02,20,14,50,10.90
2010,02,20,14,51,10.90
2010,02,20,14,52,10.90
2010,02,20,14,53,10.90
2010,02,20,14,54,11.10
2010,02,20,14,55,11.10
2010,02,20,14,56,11.10
2010,02,20,14,57,11.10
2010,02,20,14,58,11.10
2010,02,20,14,59,11.00
2010,02,20,15,00,10.90
2010,02,20,15,01,10.90
2010,02,20,15,02,10.90
2010,02,20,15,03,10.90
2010,02,20,15,04,10.90
2010,02,20,15,05,10.90
2010,02,20,15,06,11.00
2010,02,20,15,07,11.10
2010,02,20,15,08,11.10
2010,02,20,15,09,11.10
2010,02,20,15,10,11.10
2010,02,20,15,11,11.20
2010,02,20,15,12,11.20
2010,02,20,15,13,11.20
2010,02,20,15,14,11.10
2010,02,20,15,15,11.10
2010,02,20,15,16,11.10
2010,02,20,15,17,11.10
2010,02,20,15,18,11.10
2010,02,20,15,19,11.10
2010,02,20,15,20,11.10
2010,02,20,15,21,11.10
2010,02,20,15,22,11.10
2010,02,20,15,23,11.10
2010,02,20,15,24,11.10
2010,02,20,15,25,11.10
2010,02,20,15,26,11.10
2010,02,20,15,27,11.10
2010,02,20,15,28,11.00
2010,02,20,15,29,11.00
2010,02,20,15,30,11.10
2010,02,20,15,31,11.10
2010,02,20,15,32,11.10
2010,02,20,15,33,11.10
2010,02,20,15,34,11.20
2010,02,20,15,35,11.20
2010,02,20,15,36,11.30
2010,02,20,15,37,11.30
2010,02,20,15,38,11.30
2010,02,20,15,39,11.30
2010,02,20,15,40,11.40
2010,02,20,15,41,11.40
2010,02,20,15,42,11.40
2010,02,20,15,43,11.30
2010,02,20,15,44,11.30
2010,02,20,15,45,11.30
2010,02,20,15,46,11.30
2010,02,20,15,47,11.30
2010,02,20,15,48,11.30
2010,02,20,15,49,11.30
2010,02,20,15,50,11.30
2010,02,20,15,51,11.40
2010,02,20,15,52,11.40
2010,02,20,15,53,11.40
2010,02,20,15,54,11.40
2010,02,20,15,55,11.40
2010,02,20,15,56,11.30
2010,02,20,15,57,11.20
2010,02,20,15,58,11.10
2010,02,20,15,59,11.10
2010,02,20,16,00,11.00
2010,02,20,16,01,10.90
2010,02,20,16,02,10.90
2010,02,20,16,03,10.90
2010,02,20,16,04,10.90
2010,02,20,16,05,10.90
2010,02,20,16,06,11.10
2010,02,20,16,07,11.10
2010,02,20,16,08,11.10
2010,02,20,16,09,11.20
2010,02,20,16,10,11.20
2010,02,20,16,11,11.30
2010,02,20,16,12,11.40
2010,02,20,16,13,11.40
2010,02,20,16,14,11.50
2010,02,20,16,15,11.60
2010,02,20,16,16,11.60
2010,02,20,16,17,11.60
2010,02,20,16,18,11.70
2010,02,20,16,19,11.70
2010,02,20,16,20,11.80
2010,02,20,16,21,11.80
2010,02,20,16,22,11.80
2010,02,20,16,23,11.90
2010,02,20,16,24,11.90
2010,02,20,16,25,11.90
2010,02,20,16,26,11.90
2010,02,20,16,27,11.90
2010,02,20,16,28,11.90
2010,02,20,16,29,11.90
2010,02,20,16,30,11.80
2010,02,20,16,31,11.80
2010,02,20,16,32,11.80
2010,02,20,16,33,11.70
2010,02,20,16,34,11.60
2010,02,20,16,35,11.50
2010,02,20,16,36,11.40
2010,02,20,16,37,11.40
2010,02,20,16,38,11.30
2010,02,20,16,39,11.30
2010,02,20,16,40,11.20
2010,02,20,16,41,11.10
2010,02,20,16,42,11.10
2010,02,20,16,43,11.10
2010,02,20,16,44,11.10
2010,02,20,16,45,11.10
2010,02,20,16,46,11.00
2010,02,20,16,47,10.90
2010,02,20,16,48,11.00
2010,02,20,16,49,11.10
2010,02,20,16,50,11.10
2010,02,20,16,51,11.10
2010,02,20,16,52,11.10
2010,02,20,16,53,11.10
2010,02,20,16,54,11.10
2010,02,20,16,55,11.20
2010,02,20,16,56,11.20
2010,02,20,16,57,11.20
2010,02,20,16,58,11.30
2010,02,20,16,59,11.30
2010,02,20,17,00,11.30
2010,02,20,17,01,11.30
2010,02,20,17,02,11.30
2010,02,20,17,03,11.30
2010,02,20,17,04,11.30
2010,02,20,17,05,11.30
2010,02,20,17,06,11.20
2010,02,20,17,07,11.20
2010,02,20,17,08,11.20
2010,02,20,17,09,11.20
2010,02,20,17,10,11.10
2010,02,20,17,11,11.10
2010,02,20,17,12,11.10
2010,02,20,17,13,11.10
2010,02,20,17,14,11.10
2010,02,20,17,15,11.10
2010,02,20,17,16,11.10
2010,02,20,17,17,11.10
2010,02,20,17,18,11.10
2010,02,20,17,19,11.10
2010,02,20,17,20,11.00
2010,02,20,17,21,10.90
2010,02,20,17,22,10.90
2010,02,20,17,23,10.80
2010,02,20,17,24,10.80
2010,02,20,17,25,10.70
2010,02,20,17,26,10.70
2010,02,20,17,27,10.60
2010,02,20,17,28,10.60
2010,02,20,17,29,10.50
2010,02,20,17,30,10.40
2010,02,20,17,31,10.40
2010,02,20,17,32,10.30
2010,02,20,17,33,10.20
2010,02,20,17,34,10.10
2010,02,20,17,35,10.10
2010,02,20,17,36,10.00
2010,02,20,17,37,9.90
2010,02,20,17,38,9.90
2010,02,20,17,39,9.80
2010,02,20,17,40,9.70
2010,02,20,17,41,9.70
2010,02,20,17,42,9.70
2010,02,20,17,43,9.60
2010,02,20,17,44,9.50
2010,02,20,17,45,9.50
2010,02,20,17,46,9.40
2010,02,20,17,47,9.40